Location: Kergonan
(48.2337°N, 4.5518°W)
Time: 13:30:42
(UTC+00:00)

SJ-12 - Pass Details

Date: 18 January 2020
Orbit: 569 x 585 km, 97.6° (Epoch: 16 February)

Event Time Altitude Azimuth Distance (km) Brightness Sun altitude
Rises 05:26:00 0° 15° (NNE) 2,784 7.6 -25.5°
Reaches altitude 10° 05:28:10 10° 19° (NNE) 1,882 6.7 -25.1°
Maximum altitude 05:32:13 64° 101° (E) 637 4.2 -24.5°
Drops below altitude 10° 05:36:14 10° 184° (S) 1,869 6.5 -23.8°
Sets 05:38:23 0° 187° (S) 2,764 7.4 -23.4°
